NOAA 16 DEB, 41505

Orbit data source: Space-Track

NOAA 16 DEB, 41505 is space debris in SSO originally from a launch on Thu, 21 Sep 2000 UTC launched from the Air Force Western Test Range (AFWTR). Debris objects in space refer to the collection of defunct objects orbiting the Earth. Examples of debris include non-operational satellites, rocket bodies, and fragments generated from explosions, collisions, or faulty payload assembly.

Loading next visibility...
Identifier
41505, 2000-055MD
Orbit
SSO
Country
Flag of USUS
Related business
Manufacturer
Unknown
Mission
Spacecraft
Bus & Motor
Unknown
Mass
Unknown
Launch date (UTC)
2000-09-21 (25 years ago)
Launch vehicle
Unknown
Launch site
Air Force Western Test Range (AFWTR)
Object type
Payload
Rocket body
Debris
Shape & HBR
Unknown shape, 0.1 m
Radar Cross Section
Small (<0.1 m²)

Expand to show TLE details & history
Last TLE update: 4 days ago

TLE from 4 days ago
0 NOAA 16 DEB
1 41505U 00055MD  25293.14706674  .00013789  00000-0  44277-2 0  9995
2 41505  98.8334  51.9817 0035274  98.7724 261.7460 14.39153819503256
Epoch: 2025-10-20T03:31Z
TLE epoch observation values (Epoch: 2025-10-20T03:31:46.566Z)
Latitude
-0.00001°
Longitude
-29.81588°
Altitude
767.935 km
Speed
7.468 km/s
True Right ascension
03h 27m 55s
True Declination
0° 00' 00"
Sunlit
Object was in full shadow at epoch
Visualization orbit readout
Latitude
Unknown
Longitude
Unknown
Altitude
Unknown
Speed
Unknown
Apparent Right ascension
Unknown
Apparent Declination
Unknown
Sunlit
N/A
Visualization observer readout
Local Sidereal Time
00:24:08
Azimuth
Unknown
Elevation
Unknown
Doppler factor
Unknown
Orbital elements
Apogee altitude
783.608 km
Perigee altitude
733.261 km
Semi-major axis
7,136.572 km
Eccentricity
0.00353
Inclination
98.8334°
RAAN
51.9817°
Arg. of periapsis
98.7724°
True anomaly
261.34623°
Mean anomaly
261.746°
Eccentric anomaly
261.54609°
Mean motion
3.60005 °/min
Orbital period
100 mins
BSTAR
0.0044277
Loading maneuver chart data...
Computing Atmospheric mass density...
Loading historical data...
Loading historical data...
Loading historical data...
Loading historical data...
Loading historical data...
Loading historical data...
Loading historical data...

Documentation

Showing up to 5 results
|